Weather History for KFRG - March, 2013

Change the Weather History Date:

Thursday, March 21, 2013

  Actual Average Record
Temperature  
Mean Temperature 34 °F -  
Max Temperature 37 °F 46 °F 64 °F (2012)
Min Temperature 28 °F 32 °F 24 °F (2006)
Degree Days  
Heating Degree Days 32    
Moisture  
Dew Point 24 °F    
Average Humidity 74    
Maximum Humidity 93    
Minimum Humidity 48    
Precipitation  
Precipitation 0.05 in - - ()
Sea Level Pressure  
Sea Level Pressure 29.70 in    
Wind  
Wind Speed 7 mph (North)    
Max Wind Speed 16 mph    
Max Gust Speed 21 mph    
Visibility 6 miles    
Events Fog , Snow    
Averages and records for this station are not official NWS values.
T = Trace of Precipitation, MM = Missing Value Source: NWS Daily Summary

Daily Weather History Graph

Daily Weather History Graph

Search for Another Location

Airport or City:

Trip Planner

Search our weather history database for the weather conditions in past years. The results will help you decide how hot, cold, wet, or windy it might be!

Date:

Astronomy

Mar. 21, 2013 Rise Set
Actual Time 6:55 AM EDT 7:07 PM EDT
Civil Twilight 6:27 AM EDT 7:34 PM EDT
Nautical Twilight 5:55 AM EDT 8:06 PM EDT
Astronomical Twilight 5:23 AM EDT 8:39 PM EDT
Moon 1:32 PM EDT (3/21) 3:16 AM EDT (3/21)
Length of Visible Light 13h 06m
Length of Day
12h 12m
Waxing Gibbous, 68% of the Moon is Illuminated
Mar 21
Waxing Gibbous
Mar 27
Full
Apr 3
Last Quarter
Apr 10
New
Apr 18
First Quarter

Hourly Weather History & Observations

Time (EDT) Temp. Windchill Dew Point Humidity Pressure Visibility Wind Dir Wind Speed Gust Speed Precip Events Conditions
12:53 AM 39.0 °F 34.8 °F 21.9 °F 50% 29.84 in 10.0 mi NW 5.8 mph - N/A   Overcast
1:53 AM 36.0 °F 32.1 °F 23.0 °F 59% 29.82 in 10.0 mi North 4.6 mph - N/A   Mostly Cloudy
2:53 AM 34.0 °F 28.8 °F 24.1 °F 67% 29.80 in 10.0 mi NNW 5.8 mph - N/A   Clear
3:53 AM 34.0 °F 28.0 °F 24.1 °F 67% 29.79 in 10.0 mi North 6.9 mph - N/A   Overcast
4:53 AM 32.0 °F 24.8 °F 24.1 °F 73% 29.77 in 10.0 mi North 8.1 mph - N/A   Mostly Cloudy
5:53 AM 32.0 °F 27.5 °F 24.1 °F 73% 29.77 in 10.0 mi North 4.6 mph - N/A   Overcast
6:53 AM 33.1 °F 24.9 °F 23.0 °F 66% 29.77 in 10.0 mi North 10.4 mph - N/A   Overcast
7:53 AM 33.1 °F 26.1 °F 21.9 °F 64% 29.77 in 10.0 mi North 8.1 mph - N/A   Overcast
8:53 AM 33.1 °F 22.6 °F 19.9 °F 59% 29.76 in 10.0 mi NNE 16.1 mph 20.7 mph N/A   Overcast
9:53 AM 33.1 °F 24.4 °F 21.9 °F 64% 29.76 in 10.0 mi North 11.5 mph - N/A   Overcast
10:53 AM 33.1 °F 25.5 °F 21.0 °F 61% 29.75 in 10.0 mi NNE 9.2 mph - N/A   Overcast
11:53 AM 33.1 °F 24.9 °F 23.0 °F 66% 29.73 in 5.0 mi NNE 10.4 mph 16.1 mph N/A   Haze
12:35 PM 32.0 °F 23.6 °F 24.8 °F 75% 29.71 in 2.5 mi NNE 10.4 mph - N/A   Haze
12:53 PM 32.0 °F 24.8 °F 25.0 °F 75% 29.70 in 2.5 mi NNE 8.1 mph - N/A   Haze
1:01 PM 32.0 °F 24.8 °F 24.8 °F 75% 29.69 in 5.0 mi North 8.1 mph - N/A   Haze
1:35 PM 33.8 °F 25.3 °F 21.2 °F 60% 29.69 in 10.0 mi North 11.5 mph - N/A   Overcast
1:53 PM 34.0 °F 27.2 °F 23.0 °F 64% 29.68 in 10.0 mi North 8.1 mph - N/A   Overcast
2:53 PM 34.0 °F 26.6 °F 21.0 °F 59% 29.67 in 9.0 mi NNW 9.2 mph - N/A   Overcast
2:55 PM 33.8 °F 24.8 °F 21.2 °F 60% 29.66 in 2.0 mi NW 12.7 mph 18.4 mph N/A   Haze
3:01 PM 32.0 °F 23.0 °F 24.8 °F 75% 29.67 in 1.8 mi NNW 11.5 mph 18.4 mph N/A   Haze
3:38 PM 30.2 °F 24.3 °F 26.6 °F 86% 29.66 in 0.8 mi NW 5.8 mph - N/A   Overcast
3:53 PM 30.0 °F 24.1 °F 27.0 °F 88% 29.67 in 0.8 mi WNW 5.8 mph - 0.00 in Snow Light Snow
4:06 PM 30.2 °F 25.4 °F 26.6 °F 86% 29.66 in 0.5 mi NNW 4.6 mph - 0.00 in Fog , Snow Light Snow
4:11 PM 30.2 °F 23.4 °F 26.6 °F 86% 29.66 in 0.2 mi NNW 6.9 mph - 0.01 in Fog , Snow Light Snow
4:25 PM 30.2 °F 23.4 °F 26.6 °F 86% 29.65 in 0.5 mi NNW 6.9 mph - 0.02 in Fog , Snow Light Snow
4:53 PM 28.9 °F 20.4 °F 27.0 °F 92% 29.65 in 1.0 mi NNE 9.2 mph - 0.04 in Snow Light Snow
4:55 PM 28.4 °F 20.4 °F 26.6 °F 93% 29.65 in 1.0 mi NNE 8.1 mph - 0.00 in Snow Light Snow
5:07 PM 28.4 °F 22.2 °F 26.6 °F 93% 29.64 in 1.0 mi NE 5.8 mph - 0.00 in Snow Light Snow
5:13 PM 30.2 °F 24.3 °F 26.6 °F 86% 29.64 in 2.5 mi NE 5.8 mph - 0.00 in Snow Light Snow
5:20 PM 30.2 °F 24.3 °F 26.6 °F 86% 29.64 in 3.0 mi NE 5.8 mph - 0.00 in Snow Light Snow
5:53 PM 30.0 °F 26.5 °F 27.0 °F 88% 29.65 in 3.0 mi ENE 3.5 mph - 0.00 in Snow Light Snow
6:18 PM 30.2 °F - 26.6 °F 86% 29.65 in 9.0 mi Calm Calm - 0.01 in   Overcast
6:53 PM 30.0 °F - 26.1 °F 85% 29.65 in 10.0 mi Calm Calm - 0.01 in   Overcast
7:53 PM 30.0 °F - 27.0 °F 88% 29.67 in 9.0 mi Calm Calm - N/A   Partly Cloudy
8:53 PM 30.0 °F 25.2 °F 27.0 °F 88% 29.68 in 7.0 mi WSW 4.6 mph - N/A   Mostly Cloudy
9:53 PM 32.0 °F 27.5 °F 24.1 °F 73% 29.69 in 10.0 mi WNW 4.6 mph - N/A   Overcast
10:53 PM 33.1 °F 26.1 °F 15.1 °F 48% 29.70 in 10.0 mi NW 8.1 mph - N/A   Overcast
11:53 PM 32.0 °F 25.6 °F 16.0 °F 52% 29.72 in 10.0 mi NW 6.9 mph - N/A   Overcast